Miscellaneous Local Product
Issued by NWS North Platte, NE

Home | Current Version | Previous Version | Text Only | Print | Product List | Glossary On
Versions: 1 2 3 4 5 6 7 8 9 10 11 12 13 14 15 16 17 18 19 20 21 22 23 24 25 26 27 28 29 30 31 32 33 34 35 36 37 38 39 40 41 42 43 44 45 46 47 48 49 50
000
AXUS43 KLBF 250410
MISLBF


WESTERN AND NORTH CENTRAL NEBRASKA HOURLY WEATHER ROUNDUP
NATIONAL WEATHER SERVICE NORTH PLATTE NE
1100 PM CDT TUE MAY 24 2016

NOTE: "FAIR" INDICATES FEW OR NO CLOUDS BELOW 12,000 FEET WITH NO
SIGNIFICANT WEATHER AND/OR OBSTRUCTIONS TO VISIBILITY.

NOTE: STATIONS NOT REPORTING VARIABLES SUCH AS SKY/WEATHER OR
PRESSURE ARE PROVIDED BY RAWS AND APRS NETWORKS AND ARE NOT UNDER
NATIONAL WEATHER SERVICE QUALITY CONTROL.

...OBSERVATIONS IN AND NEAR THE EASTERN PANHANDLE OF NEBRASKA...

CITY           SKY/WX    TMP DP  RH WIND       PRES   REMARKS
PINE RIDGE     CLOUDY    53  48  83 NE15G26   29.84F
CHADRON        CLOUDY    54  32  43 E12       29.82F
ALLIANCE       CLOUDY    51  49  92 NE14      29.84F
SIDNEY         CLOUDY    54  51  90 E3        29.82R
CRESCENT LAKE    N/A     56  50  80 N12G18      N/A
BIG SPRINGS      N/A     59  54  83 E5          N/A
$$

...OBSERVATIONS IN NORTHERN NEBRASKA AND FAR SOUTHERN SOUTH DAKOTA...

CITY           SKY/WX    TMP DP  RH WIND       PRES   REMARKS
WINNER         MOCLDY    70  55  59 SE14      29.77S
VALENTINE      CLOUDY    70  54  56 SE9       29.79F
THEDFORD       CLOUDY    69  60  72 SW6       29.84R
AINSWORTH      CLOUDY    67  55  66 SE7       29.81F
O`NEILL        PTCLDY    69  57  67 SE8       29.81S
ORD            CLOUDY    70  60  70 SE9       29.79S
BROKEN BOW     CLOUDY    67  59  75 SE9       29.80S
BUTTE            N/A     67  58  72 SE9         N/A
CHAMBERS         N/A     67  59  74 W3          N/A
EWING            N/A     67  59  75 CALM        N/A
$$

...OBSERVATIONS IN SOUTHWEST NEBRASKA AND FAR NORTHEAST COLORADO...

CITY           SKY/WX    TMP DP  RH WIND       PRES   REMARKS
WRAY           CLOUDY    61  54  77 NE12      29.79F
HOLYOKE        FAIR      55  52  88 E3        29.83R
IMPERIAL       LGT RAIN  54  52  93 E16       29.78F
OGALLALA       LGT RAIN  59  51  72 N7        29.77F
NORTH PLATTE   TSTM      58  52  80 W30G53    29.91R
MCCOOK         CLOUDY    67  62  84 E10       29.75F
LEXINGTON      CLOUDY    69  60  73 SE13      29.79F
PAXTON           N/A     68  60  76 SE5         N/A
STAPLETON        N/A     65  59  80 CALM        N/A
GOTHENBURG       N/A     69  57  65 SE3         N/A
CALLAWAY         N/A     67  59  74 SE14        N/A
$$

...OBSERVATIONS IN CENTRAL LINCOLN COUNTY AREA...

CITY           SKY/WX    TMP DP  RH WIND       PRES   REMARKS
N.P. AIRPORT   TSTM      58  52  80 W30G53    29.91R
N.P. DOWNTOWN    N/A     55  53  92 W17G36      N/A
N.P. SOUTHEAST   N/A     55  52  90 NW15G31     N/A
N.P. HILLCREST   N/A     53  52  96 W48G61      N/A
$$

...SOME OBSERVATIONS FROM AROUND THE REGION...

CITY           SKY/WX    TMP DP  RH WIND       PRES   REMARKS
DENVER         PTCLDY    57  46  66 N6        29.87R
LARAMIE        CLOUDY    50  34  54 N14       29.96R
CHEYENNE       CLOUDY    49  42  77 SW10      29.89R
SCOTTSBLUFF    CLOUDY    56  47  71 NE14G20   29.84S
RAPID CITY     CLOUDY    53  49  86 SE9       29.84S
BISMARCK       CLOUDY    65  50  58 E8        29.85R
PIERRE         TSTM      60  54  80 W23G41    29.86R
SIOUX FALLS    CLOUDY    72  61  68 S8        29.85R
OMAHA          CLOUDY    74  63  68 S10       29.87R
GRAND ISLAND   CLOUDY    72  60  66 SE15G22   29.81F
KANSAS CITY    CLOUDY    73  67  81 SE12      29.90R
WICHITA        CLOUDY    74  62  66 S6        29.88R THUNDER
OKLAHOMA CITY  CLOUDY    75  71  87 SE16      29.87R
DALLAS         CLOUDY    83  73  72 S13       29.92R
AMARILLO       CLEAR     71  53  52 S15       29.86S
DODGE CITY     CLOUDY    63  61  93 E17G25    29.81R
HAYS           CLOUDY    55  52  88 E17G31    29.81R
GOODLAND       CLEAR     58  54  86 E8        29.76F
$$




USA.gov is the U.S. government's official web portal to all federal, state and local government web resources and services.